Flag for Canada Weather past 2 weeks in Kitchener, Ontario, Canada

Now
43 °F

Scattered clouds.


Feels Like: 40 °F
Forecast: 31 / 50 °F
Wind: 5 mph from Northeast

Location: Waterloo Well

Current Time: Apr 25, 2015 at 10:10:51 PM

Latest Report: Apr 25, 2015 at 9:00 PM


Visibility: 9 mi

Pressure: 29.84 "Hg

Humidity: 53%

Dew point: 27 °F

Location of KitchenerLocation

Historic Weather in Kitchener — Graph

°F

Kitchener temperature yesterday

Maximum temperature yesterday: 41 °F (at 5:00 PM)
Minimum temperature yesterday: 27 °F (at 2:00 AM)
Average temperature yesterday: 33 °F

Past Weeks' High & Low Weather Summary

 TemperatureHumidityPressure
High72 °F (Apr 13, 1:00 PM)100% (Apr 17, 3:00 AM)30.41 "Hg (Apr 17, 3:00 AM)
Low25 °F (Apr 25, 5:00 AM)19% (Apr 18, 3:00 PM)29.34 "Hg (Apr 20, 5:00 PM)
Average45 °F66%29.96 "Hg
* Reported Apr 10 9:00 PM — Apr 25 9:00 PM, Kitchener, Weather by CustomWeather, © 2015

Note: Actual official high and low records may vary slightly from our data, if they occured in-between our weather recording intervals... More about our weather records

Advertising

Kitchener weather history for previous 24 hours

 ConditionsComfort  
Time TempWeatherWind HumidityBarometerVisibility
9:00 PM
Sat, Apr 25
43 °FScattered clouds.5 mph53%29.84 "Hg9 mi
8:00 PM46 °FPartly sunny.5 mph50%29.82 "Hg9 mi
7:00 PM50 °FSunny.12 mph43%29.80 "Hg9 mi
6:00 PM52 °FSunny.7 mph38%29.80 "Hg9 mi
5:00 PM52 °FSunny.12 mph38%29.80 "Hg9 mi
4:00 PM52 °FSunny.9 mph38%29.82 "Hg9 mi
3:00 PM50 °FSunny.7 mph37%29.86 "Hg9 mi
2:00 PM48 °FSunny.6 mph40%29.90 "Hg9 mi
1:00 PM46 °FSunny.8 mph40%29.93 "Hg9 mi
12:00 PM45 °FSunny.2 mph39%29.96 "Hg9 mi
11:00 AM43 °FSunny.7 mph42%29.98 "Hg9 mi
10:00 AM41 °FSunny.7 mph45%29.99 "Hg9 mi
9:00 AM37 °FSunny.3 mph60%29.99 "Hg9 mi
8:00 AM30 °FSunny.3 mph80%30.00 "Hg6 mi
7:00 AM25 °FClear.No wind93%30.01 "Hg9 mi
6:00 AM25 °FClear.3 mph93%30.01 "Hg9 mi
5:00 AM25 °FClear.5 mph86%30.01 "Hg9 mi
4:00 AM27 °FClear.5 mph86%30.01 "Hg9 mi
3:00 AM27 °FClear.6 mph86%30.01 "Hg9 mi
2:00 AM27 °FClear.5 mph86%30.03 "Hg9 mi
1:00 AM28 °FClear.5 mph80%30.03 "Hg9 mi
12:00 AM28 °FClear.7 mph74%30.03 "Hg9 mi
11:00 PM
Fri, Apr 24
30 °FClear.6 mph64%30.05 "Hg9 mi
10:00 PM30 °FClear.5 mph64%30.04 "Hg9 mi
Weather by CustomWeather, © 2015

See weather overviewHow to use our weather pages